Year,Month,Day,Hour,Minute,Value (Times are PST for temperature in C)
2020,03,31,09,33,21.70
2020,03,31,09,34,21.70
2020,03,31,09,35,21.70
2020,03,31,09,36,21.70
2020,03,31,09,37,21.70
2020,03,31,09,38,21.70
2020,03,31,09,39,21.70
2020,03,31,09,40,21.70
2020,03,31,09,41,21.70
2020,03,31,09,42,21.70
2020,03,31,09,43,21.70
2020,03,31,09,44,21.70
2020,03,31,10,01,22.30
2020,03,31,10,02,22.30
2020,03,31,10,03,22.20
2020,03,31,10,04,22.20
2020,03,31,10,05,22.20
2020,03,31,10,06,22.20
2020,03,31,10,07,22.20
2020,03,31,10,08,22.20
2020,03,31,10,09,22.20
2020,03,31,10,10,22.20
2020,03,31,10,11,22.20
2020,03,31,10,12,22.40
2020,03,31,10,13,22.50
2020,03,31,10,14,22.50
2020,03,31,10,15,22.50
2020,03,31,10,16,22.50
2020,03,31,10,17,22.50
2020,03,31,10,18,22.50
2020,03,31,10,19,22.50
2020,03,31,10,20,22.50
2020,03,31,10,21,22.50
2020,03,31,10,22,22.50
2020,03,31,10,23,22.50
2020,03,31,13,12,25.90
2020,03,31,13,13,25.90
2020,03,31,13,14,25.80
2020,03,31,13,15,25.80
2020,03,31,13,16,25.80
2020,03,31,13,17,25.80
2020,03,31,13,18,25.80
2020,03,31,13,19,25.80
2020,03,31,13,20,25.80
2020,03,31,13,21,25.80
2020,03,31,13,22,25.70
2020,03,31,13,23,25.50
2020,03,31,13,24,25.40
2020,03,31,13,25,25.40
2020,03,31,13,26,25.40
2020,03,31,13,27,25.40
2020,03,31,13,28,25.40
2020,03,31,13,29,25.40
2020,03,31,13,30,25.40
2020,03,31,13,31,25.40
2020,03,31,13,32,25.40
2020,03,31,13,33,25.40
2020,03,31,14,06,24.40
2020,03,31,14,07,24.40
2020,03,31,14,08,24.40
2020,03,31,14,09,24.40
2020,03,31,14,10,24.40
2020,03,31,14,11,24.40
2020,03,31,14,12,24.40
2020,03,31,14,13,24.40
2020,03,31,14,14,24.40
2020,03,31,14,15,24.40
2020,03,31,14,16,24.40
2020,03,31,15,41,22.60
2020,03,31,15,42,22.60
2020,03,31,15,43,22.50
2020,03,31,15,44,22.40
2020,03,31,15,45,22.40
2020,03,31,15,46,22.40
2020,03,31,15,47,22.40
2020,03,31,15,48,22.40
2020,03,31,15,49,22.40
2020,03,31,15,50,22.40
2020,03,31,15,51,22.40
2020,03,31,15,52,22.40
2020,03,31,15,53,22.40
2020,03,31,15,54,22.40
2020,03,31,15,55,22.40
2020,03,31,15,56,22.40
2020,03,31,15,57,22.40
2020,03,31,15,58,22.40
2020,03,31,15,59,22.40
2020,03,31,16,00,22.40
2020,03,31,16,01,22.40
2020,03,31,16,02,22.40
2020,03,31,16,03,22.40
2020,03,31,16,04,22.40
2020,03,31,16,05,22.40
2020,03,31,16,06,22.40
2020,03,31,16,07,22.40
2020,03,31,16,08,22.40
2020,03,31,16,09,22.40
2020,03,31,16,10,22.40
2020,03,31,16,11,22.40
2020,03,31,16,12,22.60
2020,03,31,16,13,22.60
2020,03,31,16,14,22.60
2020,03,31,16,15,22.70
2020,03,31,16,16,22.80
2020,03,31,16,17,22.80
2020,03,31,16,18,22.90
2020,03,31,16,19,22.90
2020,03,31,16,20,22.90
2020,03,31,16,21,23.00
2020,03,31,16,22,23.00
2020,03,31,16,23,23.00
2020,03,31,16,24,23.10
2020,03,31,16,25,23.10
2020,03,31,16,26,23.10
2020,03,31,16,27,23.20
2020,03,31,16,28,23.30
2020,03,31,16,29,23.40
2020,03,31,16,30,23.50
2020,03,31,16,31,23.50
2020,03,31,16,32,23.60
2020,03,31,16,33,23.60
2020,03,31,16,34,23.80
2020,03,31,16,35,23.90
2020,03,31,16,36,24.10
2020,03,31,16,37,24.10
2020,03,31,16,38,24.00
2020,03,31,16,39,24.00
2020,03,31,16,40,23.90
2020,03,31,16,41,23.90
2020,03,31,16,42,23.80
2020,03,31,16,43,23.80
2020,03,31,16,44,23.90
2020,03,31,16,45,23.90
2020,03,31,16,46,23.90
2020,03,31,16,47,23.90
2020,03,31,16,48,23.90
2020,03,31,16,49,24.00
2020,03,31,16,50,24.00
2020,03,31,16,51,24.00
2020,03,31,16,52,24.00
2020,03,31,16,53,24.00
2020,03,31,16,54,24.00
2020,03,31,16,55,23.90
2020,03,31,16,56,23.90
2020,03,31,16,57,23.90
2020,03,31,16,58,23.90
2020,03,31,16,59,23.90
2020,03,31,17,00,23.90
2020,03,31,17,01,23.90
2020,03,31,17,02,23.90
2020,03,31,17,03,23.80
2020,03,31,17,04,23.80
2020,03,31,17,05,23.90
2020,03,31,17,06,23.90
2020,03,31,17,07,23.90
2020,03,31,17,08,23.90
2020,03,31,17,09,23.90
2020,03,31,17,10,24.00
2020,03,31,17,11,24.10
2020,03,31,17,12,24.10
2020,03,31,17,13,24.00
2020,03,31,17,14,24.00
2020,03,31,17,15,24.00
2020,03,31,17,16,24.00
2020,03,31,17,17,24.00
2020,03,31,17,18,24.00
2020,03,31,17,19,24.00
2020,03,31,17,20,23.90
2020,03,31,17,21,23.90
2020,03,31,17,22,23.90
2020,03,31,17,23,23.80
2020,03,31,17,24,23.80
2020,03,31,17,25,23.80
2020,03,31,17,26,23.80
2020,03,31,17,27,23.80
2020,03,31,17,28,23.80
2020,03,31,17,29,23.80
2020,03,31,17,30,23.80
2020,03,31,17,31,23.80
2020,03,31,17,32,23.80
2020,03,31,17,33,23.90
2020,03,31,17,34,23.90
2020,03,31,17,35,23.90
2020,03,31,17,36,24.00
2020,03,31,17,37,24.00
2020,03,31,17,38,24.00
2020,03,31,17,39,24.00
2020,03,31,17,40,24.00
2020,03,31,17,41,24.00
2020,03,31,17,42,24.10
2020,03,31,17,43,24.20
2020,03,31,17,44,24.30
2020,03,31,17,45,24.30
2020,03,31,17,46,24.30
2020,03,31,17,47,24.30
2020,03,31,17,48,24.30
2020,03,31,17,49,24.30
2020,03,31,17,50,24.20
2020,03,31,17,51,24.20
2020,03,31,17,52,24.20
2020,03,31,17,53,24.20
2020,03,31,17,54,24.30
2020,03,31,17,55,24.30
2020,03,31,17,56,24.30
2020,03,31,17,57,24.30
2020,03,31,17,58,24.40
2020,03,31,17,59,24.40
2020,03,31,18,00,24.40
2020,03,31,18,01,24.30
2020,03,31,18,02,24.40
2020,03,31,18,03,24.50
2020,03,31,18,04,24.50
2020,03,31,18,05,24.50
2020,03,31,18,06,24.60
2020,03,31,18,07,24.70
2020,03,31,18,08,24.80
2020,03,31,18,09,24.80
2020,03,31,18,10,24.80
2020,03,31,18,11,24.80
2020,03,31,18,12,24.80
2020,03,31,18,13,24.80
2020,03,31,18,14,24.80
2020,03,31,18,15,24.80
2020,03,31,18,16,24.80
2020,03,31,18,17,24.90
2020,03,31,18,18,24.90
2020,03,31,18,19,24.90
2020,03,31,18,20,25.00
2020,03,31,18,21,25.00
2020,03,31,18,22,25.00
2020,03,31,18,23,25.00
2020,03,31,18,24,25.00
2020,03,31,18,25,25.00
2020,03,31,18,26,25.00
2020,03,31,18,27,25.00
2020,03,31,18,28,25.00
2020,03,31,18,29,25.00
2020,03,31,18,30,24.90
2020,03,31,18,31,24.90
2020,03,31,18,32,24.90
2020,03,31,18,33,24.90
2020,03,31,18,34,25.00
2020,03,31,18,35,25.00
2020,03,31,18,36,25.00
2020,03,31,18,37,25.00
2020,03,31,18,38,25.00
2020,03,31,18,39,25.00
2020,03,31,18,40,25.10
2020,03,31,18,41,25.10
2020,03,31,18,42,25.10
2020,03,31,18,43,25.10
2020,03,31,18,44,25.10
2020,03,31,18,45,25.10
2020,03,31,18,46,25.10
2020,03,31,18,47,25.10
2020,03,31,18,48,25.10
2020,03,31,18,49,25.10
2020,03,31,18,50,25.10
2020,03,31,18,51,25.10
2020,03,31,18,52,25.10
2020,03,31,18,53,25.10
2020,03,31,18,54,25.10
2020,03,31,18,55,25.10
2020,03,31,18,56,25.10
2020,03,31,18,57,25.10
2020,03,31,18,58,25.10
2020,03,31,18,59,25.10
2020,03,31,19,00,25.00
2020,03,31,19,01,25.00
2020,03,31,19,02,24.90
2020,03,31,19,03,24.90
2020,03,31,19,04,25.00
2020,03,31,19,05,25.00
2020,03,31,19,06,25.00
2020,03,31,19,07,25.00
2020,03,31,19,08,25.00
2020,03,31,19,09,25.00
2020,03,31,19,10,25.00
2020,03,31,19,11,24.90
2020,03,31,19,12,24.90
2020,03,31,19,13,24.90
2020,03,31,19,14,24.90
2020,03,31,19,15,24.80
2020,03,31,19,16,24.80
2020,03,31,19,17,24.80
2020,03,31,19,18,24.80
2020,03,31,19,19,24.80
2020,03,31,19,20,24.80
2020,03,31,19,21,24.80
2020,03,31,19,22,24.80
2020,03,31,19,23,24.80
2020,03,31,19,24,24.80
